| time (UTC) | temp F | wind direction | speed knots | gust knots | rain 1hr in | rain 24hr in | rain mn in | humidity % | barometer mb |
| 20260507202658 | 57 | 270 | 3.5 | 7.8 | 0.00 | 1.05 | 1.05 | 76 | 1001.8 |
| 20260507202147 | 57 | 293 | 1.7 | 7.0 | 0.00 | 1.05 | 1.05 | 76 | 1001.8 |
| 20260507201128 | 57 | 293 | 1.7 | 7.8 | 0.00 | 1.05 | 1.05 | 75 | 1001.9 |
| 20260507200617 | 57 | 270 | 1.7 | 9.6 | 0.00 | 1.05 | 1.05 | 76 | 1001.5 |
| 20260507200110 | 57 | 270 | 1.7 | 13.0 | 0.00 | 1.05 | 1.05 | 75 | 1001.3 |
| 20260507195557 | 57 | 270 | 3.5 | 13.0 | 0.00 | 1.05 | 1.05 | 74 | 1001.2 |
| 20260507195046 | 57 | 270 | 1.7 | 9.6 | 0.00 | 1.05 | 1.05 | 75 | 1001.1 |
| 20260507194537 | 57 | 270 | 3.5 | 9.6 | 0.00 | 1.05 | 1.05 | 74 | 1001.0 |
| 20260507194026 | 57 | 270 | 3.5 | 7.8 | 0.00 | 1.05 | 1.05 | 74 | 1000.5 |
| 20260507193011 | 57 | 270 | 3.5 | 7.8 | 0.00 | 1.05 | 1.05 | 73 | 1000.5 |
| 20260507192455 | 57 | 270 | 3.5 | 7.0 | 0.00 | 1.05 | 1.05 | 73 | 1000.3 |
| 20260507191438 | 58 | 293 | 6.1 | 9.6 | 0.00 | 1.05 | 1.05 | 71 | 999.8 |
| 20260507190926 | 58 | 293 | 3.5 | 11.3 | 0.00 | 1.05 | 1.05 | 72 | 999.8 |
| 20260507185905 | 58 | 293 | 3.5 | 7.8 | 0.00 | 1.05 | 1.05 | 72 | 1000.3 |
| 20260507184334 | 58 | 270 | 1.7 | 7.0 | 0.00 | 1.05 | 1.05 | 70 | 1000.9 |
| 20260507183824 | 58 | 293 | 3.5 | 13.9 | 0.00 | 1.05 | 1.05 | 70 | 1001.6 |
| 20260507182805 | 58 | 293 | 2.6 | 7.0 | 0.00 | 1.05 | 1.05 | 69 | 1002.2 |
| 20260507181742 | 58 | 225 | 3.5 | 7.0 | 0.00 | 1.05 | 1.05 | 69 | 1002.5 |
| 20260507181231 | 58 | 293 | 2.6 | 7.0 | 0.00 | 1.05 | 1.05 | 70 | 1002.4 |
| 20260507180724 | 58 | 293 | 2.6 | 7.0 | 0.00 | 1.05 | 1.05 | 69 | 1002.2 |
| 20260507180214 | 58 | 270 | 2.6 | 6.1 | 0.00 | 1.05 | 1.05 | 70 | 1002.1 |
| 20260507175153 | 58 | 270 | 2.6 | 5.2 | 0.00 | 1.05 | 1.05 | 70 | 1002.8 |
| 20260507174134 | 58 | 293 | 1.7 | 6.1 | 0.00 | 1.05 | 1.05 | 70 | 1003.7 |
| 20260507173624 | 58 | 293 | 0.0 | 6.1 | 0.00 | 1.05 | 1.05 | 71 | 1003.7 |
| 20260507173114 | 58 | 293 | 3.5 | 6.1 | 0.00 | 1.05 | 1.05 | 71 | 1003.6 |
| 20260507172603 | 58 | 293 | 1.7 | 3.5 | 0.00 | 1.05 | 1.05 | 72 | 1003.5 |
| 20260507171543 | 57 | 270 | 1.7 | 6.1 | 0.00 | 1.05 | 1.05 | 72 | 1003.2 |
| 20260507171034 | 57 | 270 | 1.7 | 7.8 | 0.00 | 1.05 | 1.05 | 71 | 1003.4 |
| 20260507170522 | 57 | 293 | 3.5 | 9.6 | 0.00 | 1.05 | 1.05 | 71 | 1002.9 |
| 20260507170013 | 57 | 293 | 3.5 | 9.6 | 0.00 | 1.05 | 1.05 | 71 | 1002.2 |
| 20260507164953 | 57 | 270 | 1.7 | 7.0 | 0.00 | 1.05 | 1.05 | 74 | 1001.4 |
| 20260507164442 | 57 | 293 | 2.6 | 7.0 | 0.00 | 1.05 | 1.05 | 76 | 1001.1 |
| 20260507163935 | 57 | 270 | 1.7 | 7.0 | 0.00 | 1.05 | 1.05 | 76 | 1000.9 |
| 20260507163422 | 57 | 270 | 2.6 | 7.0 | 0.00 | 1.05 | 1.05 | 74 | 1000.7 |
| 20260507162402 | 57 | 270 | 2.6 | 7.8 | 0.00 | 1.05 | 1.05 | 75 | 1001.2 |
| 20260507161851 | 57 | 293 | 3.5 | 7.8 | 0.00 | 1.05 | 1.05 | 74 | 1001.3 |
| 20260507161342 | 57 | 270 | 2.6 | 9.6 | 0.00 | 1.05 | 1.05 | 74 | 1001.4 |
| 20260507160832 | 57 | 270 | 3.5 | 9.6 | 0.00 | 1.05 | 1.05 | 75 | 1002.1 |
| 20260507160322 | 57 | 293 | 2.6 | 6.1 | 0.00 | 1.05 | 1.05 | 75 | 1002.3 |
| 20260507155811 | 57 | 270 | 1.7 | 7.0 | 0.00 | 1.05 | 1.05 | 75 | 1002.7 |
| 20260507155301 | 57 | 293 | 1.7 | 9.6 | 0.00 | 1.05 | 1.05 | 75 | 1002.8 |
| 20260507154751 | 57 | 293 | 1.7 | 9.6 | 0.00 | 1.05 | 1.05 | 75 | 1003.4 |
| 20260507154242 | 58 | 293 | 3.5 | 7.8 | 0.00 | 1.05 | 1.05 | 75 | 1003.0 |
| 20260507153731 | 58 | 270 | 1.7 | 7.0 | 0.00 | 1.05 | 1.05 | 76 | 1002.9 |
| 20260507153223 | 58 | 270 | 0.0 | 7.0 | 0.00 | 1.05 | 1.05 | 77 | 1003.0 |
| 20260507152200 | 58 | 293 | 0.9 | 7.0 | 0.00 | 1.05 | 1.05 | 76 | 1002.1 |
| 20260507151651 | 59 | 270 | 1.7 | 5.2 | 0.00 | 1.05 | 1.05 | 77 | 1002.1 |
| 20260507151142 | 58 | 248 | 0.0 | 7.0 | 0.00 | 1.05 | 1.05 | 77 | 1001.7 |
| 20260507150631 | 58 | 270 | 1.7 | 7.0 | 0.00 | 1.05 | 1.05 | 77 | 1001.7 |
| 20260507145100 | 58 | 270 | 1.7 | 7.8 | 0.00 | 1.05 | 1.05 | 80 | 1001.9 |
| 20260507144040 | 59 | 270 | 3.5 | 7.8 | 0.00 | 1.05 | 1.05 | 79 | 1001.7 |
| 20260507143529 | 59 | 270 | 3.5 | 9.6 | 0.00 | 1.05 | 1.05 | 79 | 1001.7 |
| 20260507143019 | 59 | 248 | 3.5 | 9.6 | 0.00 | 1.05 | 1.05 | 78 | 1002.0 |
| 20260507142509 | 58 | 248 | 1.7 | 7.0 | 0.00 | 1.05 | 1.05 | 81 | 1001.8 |
| 20260507141959 | 58 | 293 | 2.6 | 9.6 | 0.00 | 1.05 | 1.05 | 80 | 1001.8 |
| 20260507141448 | 58 | 293 | 5.2 | 9.6 | 0.00 | 1.05 | 1.05 | 80 | 1001.9 |
| 20260507140939 | 58 | 293 | 3.5 | 9.6 | 0.00 | 1.05 | 1.05 | 82 | 1002.0 |
| 20260507140435 | 58 | 270 | 4.3 | 9.6 | 0.00 | 1.05 | 1.05 | 85 | 1002.0 |
| 20260507135919 | 58 | 293 | 1.7 | 9.6 | 0.00 | 1.05 | 1.05 | 86 | 1001.3 |
| 20260507135408 | 58 | 270 | 3.5 | 7.8 | 0.00 | 1.05 | 1.05 | 85 | 1001.8 |
| 20260507134906 | 58 | 248 | 2.6 | 7.8 | 0.00 | 1.05 | 1.05 | 86 | 1002.1 |
| 20260507134348 | 58 | 270 | 3.5 | 7.0 | 0.00 | 1.05 | 1.05 | 83 | 1002.0 |
| 20260507133838 | 59 | 293 | 3.5 | 7.0 | 0.00 | 1.05 | 1.05 | 86 | 1002.1 |
| 20260507132817 | 59 | 270 | 1.7 | 5.2 | 0.00 | 1.05 | 1.05 | 88 | 1001.4 |
| 20260507132309 | 59 | 293 | 1.7 | 5.2 | 0.00 | 1.05 | 1.05 | 88 | 1001.4 |
| 20260507131758 | 59 | 248 | 0.9 | 3.5 | 0.00 | 1.05 | 1.05 | 86 | 1000.8 |
| 20260507131248 | 59 | 248 | 0.0 | 3.5 | 0.00 | 1.05 | 1.05 | 86 | 1001.2 |
| 20260507130737 | 59 | 248 | 0.0 | 3.5 | 0.00 | 1.05 | 1.05 | 87 | 1001.5 |
| 20260507130227 | 59 | 293 | 0.0 | 5.2 | 0.00 | 1.05 | 1.05 | 87 | 1001.2 |
| 20260507125718 | 59 | 248 | 0.9 | 5.2 | 0.00 | 1.05 | 1.05 | 87 | 1001.1 |
| 20260507125207 | 59 | 293 | 2.6 | 5.2 | 0.00 | 1.05 | 1.05 | 87 | 1001.4 |
| 20260507124147 | 58 | 270 | 0.9 | 3.5 | 0.00 | 1.05 | 1.05 | 91 | 1001.5 |
| 20260507123127 | 57 | 270 | 0.0 | 1.7 | 0.00 | 1.05 | 1.05 | 99 | 1001.2 |
| 20260507122617 | 57 | 248 | 0.0 | 1.7 | 0.00 | 1.05 | 1.05 | 99 | 1001.9 |
| 20260507122106 | 56 | 270 | 0.0 | 1.7 | 0.00 | 1.05 | 1.05 | 99 | 1002.0 |
| 20260507121557 | 56 | 270 | 0.0 | 3.5 | 0.00 | 1.05 | 1.05 | 99 | 1002.1 |
| 20260507121046 | 56 | 293 | 0.0 | 3.5 | 0.00 | 1.05 | 1.05 | 99 | 1003.0 |
| 20260507120535 | 56 | 293 | 0.0 | 7.0 | 0.00 | 1.05 | 1.05 | 99 | 1002.8 |
| 20260507120026 | 56 | 248 | 0.0 | 12.2 | 0.00 | 1.05 | 1.05 | 99 | 1001.6 |
| 20260507115006 | 56 | 270 | 3.5 | 7.0 | 0.00 | 1.05 | 1.05 | 99 | 1000.8 |
| 20260507113949 | 57 | 270 | 0.0 | 6.1 | 0.00 | 1.05 | 1.05 | 99 | 1001.6 |
| 20260507113436 | 57 | 270 | 0.9 | 3.5 | 0.00 | 1.05 | 1.05 | 99 | 1001.4 |
| 20260507112925 | 57 | 270 | 0.0 | 3.5 | 0.00 | 1.05 | 1.05 | 99 | 1000.9 |
| 20260507112415 | 57 | 270 | 0.0 | 7.8 | 0.00 | 1.05 | 1.05 | 99 | 1001.1 |
| 20260507111906 | 57 | 225 | 0.9 | 12.2 | 0.00 | 1.05 | 1.05 | 99 | 1000.6 |
| 20260507111355 | 57 | 225 | 6.1 | 12.2 | 0.00 | 1.05 | 1.05 | 99 | 999.7 |
| 20260507110844 | 57 | 248 | 7.0 | 11.3 | 0.00 | 1.05 | 1.05 | 99 | 999.9 |
| 20260507110335 | 58 | 248 | 5.2 | 9.6 | 0.00 | 1.05 | 1.05 | 99 | 999.7 |
| 20260507105824 | 58 | 248 | 7.0 | 9.6 | 0.00 | 1.05 | 1.05 | 99 | 1000.1 |
| 20260507105314 | 58 | 270 | 3.5 | 7.8 | 0.00 | 1.05 | 1.05 | 99 | 1000.9 |
| 20260507104805 | 58 | 225 | 2.6 | 5.2 | 0.00 | 1.05 | 1.05 | 99 | 1001.1 |
| 20260507104254 | 58 | 270 | 0.0 | 5.2 | 0.00 | 1.05 | 1.05 | 99 | 1001.2 |
| 20260507103745 | 58 | 270 | 0.0 | 5.2 | 0.00 | 1.05 | 1.05 | 99 | 1000.3 |
| 20260507103234 | 58 | 270 | 0.9 | 5.2 | 0.00 | 1.05 | 1.05 | 99 | 999.8 |
| 20260507102729 | 58 | 270 | 0.0 | 7.0 | 0.00 | 1.05 | 1.05 | 99 | 999.5 |
| 20260507101704 | 58 | 248 | 3.5 | 6.1 | 0.00 | 1.05 | 1.05 | 99 | 999.5 |
| 20260507101154 | 58 | 248 | 3.5 | 5.2 | 0.00 | 1.05 | 1.05 | 99 | 1000.0 |
| 20260507100643 | 58 | 225 | 0.0 | 5.2 | 0.00 | 1.05 | 1.05 | 99 | 1000.4 |
| 20260507100136 | 58 | 180 | 0.0 | 6.1 | 0.00 | 1.05 | 1.05 | 99 | 1000.1 |
| 20260507095622 | 59 | 293 | 2.6 | 6.1 | 0.00 | 1.05 | 1.05 | 99 | 1000.3 |
| 20260507094600 | 59 | 270 | 1.7 | 3.5 | 0.00 | 1.05 | 1.05 | 99 | 1000.7 |
| 20260507094052 | 59 | 270 | 0.0 | 3.5 | 0.00 | 1.05 | 1.05 | 99 | 1000.7 |
| 20260507093545 | 59 | 293 | 0.9 | 3.5 | 0.00 | 1.05 | 1.05 | 99 | 1000.8 |
| 20260507092525 | 59 | 293 | 0.0 | 6.1 | 0.00 | 1.05 | 1.05 | 99 | 1000.4 |
| 20260507092013 | 60 | 293 | 0.0 | 7.0 | 0.00 | 1.05 | 1.05 | 99 | 999.6 |
| 20260507091503 | 60 | 248 | 3.5 | 13.9 | 0.00 | 1.05 | 1.05 | 99 | 998.2 |
| 20260507090952 | 60 | 203 | 4.3 | 13.9 | 0.00 | 1.05 | 1.05 | 99 | 997.4 |
| 20260507090444 | 60 | 203 | 4.3 | 12.2 | 0.00 | 1.05 | 1.05 | 99 | 998.5 |
| 20260507085931 | 60 | 248 | 1.7 | 7.0 | 0.00 | 1.05 | 1.05 | 99 | 999.4 |
| 20260507085424 | 60 | 270 | 2.6 | 5.2 | 0.00 | 1.05 | 1.05 | 99 | 999.5 |
| 20260507084914 | 60 | 293 | 0.9 | 3.5 | 0.00 | 1.05 | 1.05 | 99 | 999.4 |
| 20260507084402 | 60 | 293 | 0.9 | 3.5 | 0.00 | 1.05 | 1.05 | 99 | 999.8 |
| 20260507083852 | 60 | 270 | 1.7 | 3.5 | 0.00 | 1.05 | 1.05 | 99 | 1000.0 |
| 20260507083341 | 60 | 293 | 1.7 | 3.5 | 0.00 | 1.05 | 1.05 | 99 | 1000.6 |
| 20260507082831 | 60 | 293 | 0.0 | 1.7 | 0.00 | 1.05 | 1.05 | 99 | 1000.2 |
| 20260507082321 | 60 | 293 | 0.0 | 0.0 | 0.01 | 1.05 | 1.05 | 99 | 1000.0 |
| 20260507081811 | 61 | 293 | 0.0 | 0.0 | 0.05 | 1.05 | 1.05 | 99 | 999.7 |
| 20260507081301 | 61 | 293 | 0.0 | 1.7 | 0.05 | 1.05 | 1.05 | 99 | 1000.1 |
| 20260507080752 | 61 | 293 | 0.0 | 1.7 | 0.05 | 1.05 | 1.05 | 99 | 999.8 |
| 20260507075733 | 61 | 293 | 0.0 | 1.7 | 0.05 | 1.05 | 1.05 | 99 | 1000.3 |
| 20260507075220 | 61 | 293 | 0.0 | 3.5 | 0.06 | 1.05 | 1.05 | 99 | 1000.3 |
| 20260507074710 | 61 | 293 | 0.9 | 3.5 | 0.06 | 1.05 | 1.05 | 99 | 1000.2 |
| 20260507074202 | 61 | 293 | 0.9 | 3.5 | 0.06 | 1.05 | 1.05 | 99 | 1000.2 |
| 20260507073650 | 61 | 293 | 0.9 | 3.5 | 0.06 | 1.05 | 1.05 | 99 | 1000.7 |
| 20260507073142 | 61 | 293 | 0.0 | 1.7 | 0.06 | 1.05 | 1.05 | 99 | 1000.5 |
| 20260507072634 | 61 | 293 | 0.0 | 1.7 | 0.06 | 1.05 | 1.05 | 99 | 1000.1 |
| 20260507072122 | 61 | 293 | 0.0 | 1.7 | 0.02 | 1.02 | 1.02 | 99 | 1000.7 |
| 20260507071610 | 62 | 293 | 0.0 | 0.0 | 0.01 | 1.00 | 1.00 | 99 | 1001.1 |
| 20260507071059 | 62 | 293 | 0.0 | 0.0 | 0.01 | 1.00 | 1.00 | 99 | 1000.4 |
| 20260507070549 | 62 | 293 | 0.0 | 0.0 | 0.01 | 1.00 | 1.00 | 99 | 1000.0 |
| 20260507065529 | 62 | 293 | 0.0 | 0.0 | 0.00 | 0.99 | 1.00 | 99 | 999.7 |
| 20260507065019 | 62 | 293 | 0.0 | 0.0 | 0.00 | 0.99 | 0.99 | 99 | 999.4 |
| 20260507064514 | 61 | 293 | 0.0 | 0.0 | 0.00 | 0.99 | 0.99 | 99 | 999.5 |
| 20260507063958 | 61 | 293 | 0.0 | 0.0 | 0.00 | 0.99 | 0.99 | 99 | 999.7 |
| 20260507062938 | 62 | 180 | 0.0 | 0.0 | 0.01 | 0.99 | 0.99 | 99 | 999.4 |
| 20260507062429 | 62 | 180 | 0.0 | 0.0 | 0.01 | 0.99 | 0.99 | 99 | 999.0 |
| 20260507061920 | 62 | 180 | 0.0 | 0.0 | 0.02 | 0.99 | 0.99 | 99 | 999.3 |
| 20260507061408 | 62 | 180 | 0.0 | 0.0 | 0.04 | 0.99 | 0.99 | 99 | 999.7 |
| 20260507060858 | 62 | 180 | 0.0 | 1.7 | 0.04 | 0.99 | 0.99 | 99 | 999.5 |
| 20260507060348 | 62 | 180 | 0.0 | 6.1 | 0.05 | 0.99 | 0.99 | 99 | 999.1 |
| 20260507055328 | 61 | 180 | 3.5 | 9.6 | 0.20 | 0.99 | 0.99 | 99 | 998.4 |
| 20260507054818 | 62 | 203 | 2.6 | 5.2 | 0.39 | 0.99 | 0.99 | 99 | 998.2 |
| 20260507054310 | 62 | 270 | 1.7 | 3.5 | 0.64 | 0.99 | 0.99 | 99 | 999.3 |
| 20260507053757 | 62 | 180 | 3.5 | 3.5 | 0.85 | 0.99 | 0.99 | 99 | 999.4 |
| 20260507053252 | 62 | 248 | 0.0 | 1.7 | 0.92 | 0.99 | 0.99 | 99 | 1001.4 |
| 20260507052230 | 63 | 180 | 0.0 | 0.0 | 0.97 | 0.97 | 0.98 | 99 | 1002.4 |
| 20260507051718 | 63 | 180 | 0.0 | 3.5 | 0.96 | 0.96 | 0.96 | 99 | 1002.1 |
| 20260507051209 | 62 | 180 | 0.0 | 3.5 | 0.96 | 0.96 | 0.96 | 99 | 1002.5 |
| 20260507050658 | 62 | 180 | 1.7 | 7.0 | 0.96 | 0.96 | 0.96 | 99 | 1001.8 |
| 20260507045636 | 63 | 225 | 3.5 | 6.1 | 0.86 | 0.86 | 0.86 | 99 | 1002.4 |
| 20260507045156 | 63 | 225 | 3.5 | 11.3 | 0.76 | 0.76 | 0.76 | 99 | 1002.6 |
| 20260507042536 | 66 | 270 | 7.0 | 11.3 | 0.01 | 0.01 | 0.01 | 92 | 999.6 |
| 20260507042026 | 66 | 248 | 6.1 | 13.9 | 0.00 | 0.00 | 0.00 | 89 | 999.2 |
| 20260507041010 | 67 | 225 | 13.0 | 18.2 | 0.00 | 0.00 | 0.00 | 86 | 999.0 |
| 20260507040459 | 68 | 293 | 3.5 | 20.9 | 0.00 | 0.00 | 0.00 | 86 | 999.5 |
| 20260507035949 | 69 | 248 | 9.6 | 20.9 | 0.00 | 0.00 | 0.00 | 86 | 999.0 |
| 20260507035440 | 76 | 270 | 4.3 | 7.8 | 0.00 | 0.00 | 0.00 | 83 | 999.3 |
| 20260507034930 | 77 | 293 | 4.3 | 7.8 | 0.00 | 0.00 | 0.00 | 81 | 998.4 |
| 20260507034423 | 77 | 293 | 3.5 | 7.8 | 0.00 | 0.00 | 0.00 | 80 | 997.8 |
| 20260507033910 | 77 | 293 | 2.6 | 9.6 | 0.00 | 0.00 | 0.00 | 80 | 997.4 |
| 20260507032849 | 77 | 293 | 2.6 | 9.6 | 0.00 | 0.00 | 0.00 | 80 | 997.2 |
| 20260507031829 | 77 | 293 | 1.7 | 7.0 | 0.00 | 0.00 | 0.00 | 80 | 997.7 |
| 20260507031319 | 77 | 293 | 1.7 | 9.6 | 0.00 | 0.00 | 0.00 | 80 | 997.8 |
| 20260507030809 | 77 | 293 | 3.5 | 9.6 | 0.00 | 0.00 | 0.00 | 79 | 997.8 |
| 20260507030257 | 77 | 293 | 4.3 | 9.6 | 0.00 | 0.00 | 0.00 | 79 | 997.8 |
| 20260507025238 | 78 | 293 | 3.5 | 9.6 | 0.00 | 0.00 | 0.00 | 79 | 998.2 |
| 20260507024727 | 78 | 180 | 2.6 | 7.0 | 0.00 | 0.00 | 0.00 | 79 | 998.3 |
| 20260507023708 | 78 | 293 | 3.5 | 9.6 | 0.00 | 0.00 | 0.00 | 78 | 998.8 |
| 20260507023200 | 78 | 270 | 3.5 | 9.6 | 0.00 | 0.00 | 0.00 | 77 | 998.9 |
| 20260507022648 | 79 | 293 | 1.7 | 7.8 | 0.00 | 0.00 | 0.00 | 77 | 998.8 |
| 20260507021627 | 78 | 293 | 6.1 | 9.6 | 0.00 | 0.00 | 0.00 | 77 | 999.2 |
| 20260507021117 | 78 | 293 | 3.5 | 7.8 | 0.00 | 0.00 | 0.00 | 78 | 999.2 |
| 20260507020605 | 78 | 293 | 1.7 | 0.0 | 0.00 | 0.00 | 0.00 | 79 | 999.1 |
| 20260507015604 | 77 | 293 | 1.7 | 6.1 | 0.00 | 0.00 | 0.00 | 81 | 999.0 |
| 20260507015053 | 77 | 293 | 1.7 | 6.1 | 0.00 | 0.00 | 0.00 | 81 | 999.1 |
| 20260507014034 | 77 | 293 | 2.6 | 7.0 | 0.00 | 0.00 | 0.00 | 80 | 999.0 |
| 20260507013014 | 77 | 293 | 3.5 | 9.6 | 0.00 | 0.00 | 0.00 | 80 | 999.1 |
| 20260507012505 | 77 | 293 | 3.5 | 9.6 | 0.00 | 0.00 | 0.00 | 81 | 998.8 |
| 20260507011955 | 77 | 293 | 3.5 | 9.6 | 0.00 | 0.00 | 0.00 | 81 | 998.9 |
| 20260507011442 | 77 | 293 | 5.2 | 9.6 | 0.00 | 0.00 | 0.00 | 81 | 998.9 |
| 20260507010422 | 77 | 270 | 6.1 | 9.6 | 0.00 | 0.00 | 0.00 | 80 | 999.0 |
| 20260507004853 | 76 | 293 | 5.2 | 12.2 | 0.00 | 0.00 | 0.00 | 82 | 998.6 |
| 20260507004342 | 76 | 293 | 6.1 | 11.3 | 0.00 | 0.00 | 0.00 | 82 | 998.6 |
| 20260507003832 | 76 | 293 | 5.2 | 11.3 | 0.00 | 0.00 | 0.00 | 82 | 998.9 |
| 20260507002812 | 76 | 293 | 5.2 | 9.6 | 0.00 | 0.00 | 0.00 | 81 | 999.6 |
| 20260507000735 | 77 | 293 | 3.5 | 7.8 | 0.00 | 0.00 | 0.00 | 81 | 999.6 |
| 20260507000221 | 77 | 293 | 3.5 | 7.0 | 0.00 | 0.00 | 0.00 | 80 | 999.8 |
| 20260506235711 | 77 | 293 | 3.5 | 7.0 | 0.00 | 0.00 | 0.00 | 80 | 999.8 |
| 20260506235203 | 77 | 293 | 3.5 | 7.8 | 0.00 | 0.00 | 0.00 | 79 | 999.9 |
| 20260506234140 | 78 | 293 | 3.5 | 7.8 | 0.00 | 0.00 | 0.00 | 78 | 999.9 |
| 20260506233633 | 78 | 293 | 4.3 | 7.8 | 0.00 | 0.00 | 0.00 | 77 | 999.7 |
| 20260506233122 | 78 | 293 | 3.5 | 7.8 | 0.00 | 0.00 | 0.00 | 77 | 999.7 |
| 20260506232610 | 79 | 293 | 3.5 | 7.8 | 0.00 | 0.00 | 0.00 | 76 | 999.8 |
| 20260506231041 | 80 | 293 | 3.5 | 11.3 | 0.00 | 0.00 | 0.00 | 75 | 999.5 |
| 20260506230531 | 80 | 293 | 3.5 | 9.6 | 0.00 | 0.00 | 0.00 | 74 | 999.3 |
| 20260506230020 | 80 | 293 | 4.3 | 9.6 | 0.00 | 0.00 | 0.00 | 74 | 999.2 |
| 20260506225510 | 80 | 293 | 3.5 | 12.2 | 0.00 | 0.00 | 0.00 | 74 | 999.3 |
| 20260506224959 | 80 | 293 | 4.3 | 12.2 | 0.00 | 0.00 | 0.00 | 74 | 999.6 |
| 20260506224449 | 80 | 293 | 6.1 | 9.6 | 0.00 | 0.00 | 0.00 | 74 | 999.5 |
| 20260506223939 | 80 | 293 | 3.5 | 9.6 | 0.00 | 0.00 | 0.00 | 75 | 999.3 |
| 20260506223429 | 80 | 293 | 3.5 | 7.0 | 0.00 | 0.00 | 0.00 | 75 | 999.2 |
| 20260506222919 | 79 | 293 | 2.6 | 3.5 | 0.00 | 0.00 | 0.00 | 76 | 999.3 |
| 20260506221900 | 79 | 293 | 3.5 | 7.0 | 0.00 | 0.00 | 0.00 | 76 | 999.4 |
| 20260506221349 | 79 | 293 | 1.7 | 3.5 | 0.00 | 0.00 | 0.00 | 76 | 999.5 |
| 20260506215819 | 80 | 293 | 0.0 | 0.0 | 0.00 | 0.00 | 0.00 | 76 | 999.7 |
| 20260506215308 | 80 | 293 | 0.0 | 1.7 | 0.00 | 0.00 | 0.00 | 75 | 999.8 |
| 20260506214758 | 80 | 293 | 0.0 | 1.7 | 0.00 | 0.00 | 0.00 | 75 | 1000.1 |
| 20260506214248 | 80 | 293 | 0.0 | 1.7 | 0.00 | 0.00 | 0.00 | 75 | 1000.0 |
| 20260506213738 | 80 | 293 | 0.0 | 0.0 | 0.00 | 0.00 | 0.00 | 74 | 1000.3 |
| 20260506212717 | 81 | 293 | 0.0 | 3.5 | 0.00 | 0.00 | 0.00 | 72 | 1000.2 |
| 20260506211702 | 82 | 293 | 0.0 | 3.5 | 0.00 | 0.00 | 0.00 | 70 | 1000.2 |
| 20260506211151 | 83 | 293 | 0.0 | 3.5 | 0.00 | 0.00 | 0.00 | 70 | 1000.2 |
| 20260506210627 | 83 | 293 | 0.0 | 3.5 | 0.00 | 0.00 | 0.00 | 69 | 1000.6 |
| 20260506210116 | 83 | 293 | 1.7 | 3.5 | 0.00 | 0.00 | 0.00 | 69 | 1000.4 |
| 20260506205607 | 83 | 293 | 0.0 | 3.5 | 0.00 | 0.00 | 0.00 | 69 | 1000.6 |
| 20260506205056 | 83 | 293 | 0.0 | 1.7 | 0.00 | 0.00 | 0.00 | 68 | 1000.8 |
| 20260506204549 | 84 | 293 | 0.0 | 1.7 | 0.00 | 0.00 | 0.00 | 68 | 1000.6 |
| 20260506204036 | 84 | 293 | 0.0 | 1.7 | 0.00 | 0.00 | 0.00 | 68 | 1000.8 |
| 20260506203529 | 84 | 293 | 0.0 | 3.5 | 0.00 | 0.00 | 0.00 | 67 | 1000.9 |
| 20260506203016 | 85 | 293 | 0.0 | 3.5 | 0.00 | 0.00 | 0.00 | 66 | 1000.8 |